Rensselaer, IN

1:37 PM CDT on August 24, 2016 (GMT -0500)
Jasper County

Weather History for KRZL - June, 2013

Change the Weather History Date:

Tuesday, June 18, 2013

  Actual Average (KVPZ) Record (KVPZ)
Temperature  
Mean Temperature 68 °F 70 °F  
Max Temperature 78 °F 81 °F 92 °F (2001)
Min Temperature 59 °F 60 °F 45 °F (1999)
Degree Days  
Heating Degree Days 0 1  
Month to date heating degree days 36  
Since 1 June heating degree days 36  
Since 1 July heating degree days 6315  
Cooling Degree Days 4 6  
Month to date cooling degree days 80  
Year to date cooling degree days 127  
Since 1 June cooling degree days 80  
Growing Degree Days 18 (Base 50)    
Moisture  
Dew Point 58 °F    
Average Humidity 73    
Maximum Humidity 94    
Minimum Humidity 44    
Precipitation  
Precipitation 0.00 in 0.10 in 0.95 in (2010)
Month to date precipitation 2.30  
Year to date precipitation 15.28  
Sea Level Pressure  
Sea Level Pressure 29.97 in    
Wind  
Wind Speed 6 mph (North)    
Max Wind Speed 14 mph    
Max Gust Speed 22 mph    
Visibility 10 miles    
Events Rain    
T = Trace of Precipitation, MM = Missing Value Source: NWS Daily Summary

Daily Weather History Graph

Daily Weather History Graph

Search for Another Location

Airport or City:

Trip Planner

Search our weather history database for the weather conditions in past years. The results will help you decide how hot, cold, wet, or windy it might be!

Date:

Astronomy

Jun. 18, 2013 Rise Set
Actual Time 5:16 AM CDT 8:23 PM CDT
Civil Twilight 4:42 AM CDT 8:57 PM CDT
Nautical Twilight 3:59 AM CDT 9:40 PM CDT
Astronomical Twilight 3:08 AM CDT 10:31 PM CDT
Moon 3:05 PM CDT (6/18) 1:26 AM CDT (6/18)
Length of Visible Light 16h 14m
Length of Day
15h 07m
Waxing Gibbous, 71% of the Moon is Illuminated
Jun 18
Waxing Gibbous
Jun 23
Full
Jun 29
Last Quarter
Jul 8
New
Jul 15
First Quarter

Hourly Weather History & Observations

Time (CDT) Temp. Dew Point Humidity Pressure Visibility Wind Dir Wind Speed Gust Speed Precip Events Conditions
12:15 AM 69.8 °F 59.0 °F 68% 29.90 in 10.0 mi Calm Calm - N/A   Clear
12:35 AM 68.0 °F 60.8 °F 78% 29.89 in 10.0 mi ENE 4.6 mph - N/A   Clear
12:55 AM 68.0 °F 59.0 °F 73% 29.90 in 10.0 mi NNE 3.5 mph - N/A   Clear
1:15 AM 68.0 °F 59.0 °F 73% 29.90 in 10.0 mi NNW 4.6 mph - N/A   Mostly Cloudy
1:35 AM 68.0 °F 60.8 °F 78% 29.90 in 10.0 mi NNW 3.5 mph - N/A   Overcast
1:55 AM 66.2 °F 60.8 °F 83% 29.90 in 10.0 mi NNW 5.8 mph - N/A   Scattered Clouds
2:15 AM 64.4 °F 60.8 °F 88% 29.90 in 10.0 mi NNW 4.6 mph - N/A   Clear
2:35 AM 64.4 °F 60.8 °F 88% 29.90 in 10.0 mi NNW 5.8 mph - N/A   Clear
2:55 AM 62.6 °F 59.0 °F 88% 29.91 in 10.0 mi Calm Calm - N/A   Clear
3:15 AM 62.6 °F 60.8 °F 94% 29.91 in 10.0 mi Calm Calm - N/A   Clear
3:35 AM 62.6 °F 60.8 °F 94% 29.90 in 10.0 mi North 6.9 mph - N/A   Clear
3:55 AM 62.6 °F 59.0 °F 88% 29.92 in 10.0 mi North 8.1 mph - N/A   Clear
4:15 AM 60.8 °F 59.0 °F 94% 29.92 in 7.0 mi North 4.6 mph - N/A   Clear
4:35 AM 60.8 °F 59.0 °F 94% 29.93 in 7.0 mi Calm Calm - N/A   Clear
4:55 AM 60.8 °F 59.0 °F 94% 29.93 in 10.0 mi North 5.8 mph - N/A   Scattered Clouds
5:15 AM 60.8 °F 59.0 °F 94% 29.93 in 10.0 mi North 4.6 mph - N/A   Scattered Clouds
5:35 AM 60.8 °F 59.0 °F 94% 29.93 in 10.0 mi North 4.6 mph - N/A   Scattered Clouds
5:55 AM 59.0 °F 57.2 °F 94% 29.93 in 10.0 mi Calm Calm - N/A   Clear
6:15 AM 60.8 °F 57.2 °F 88% 29.94 in 10.0 mi North 5.8 mph - N/A   Clear
6:35 AM 60.8 °F 59.0 °F 94% 29.95 in 10.0 mi NNW 6.9 mph - N/A   Scattered Clouds
6:55 AM 60.8 °F 57.2 °F 88% 29.96 in 10.0 mi Calm Calm - N/A   Mostly Cloudy
7:15 AM 60.8 °F 57.2 °F 88% 29.97 in 10.0 mi North 6.9 mph - N/A   Mostly Cloudy
7:35 AM 60.8 °F 57.2 °F 88% 29.97 in 10.0 mi Calm Calm - N/A   Mostly Cloudy
7:55 AM 62.6 °F 59.0 °F 88% 29.97 in 10.0 mi North 5.8 mph - N/A   Mostly Cloudy
8:15 AM 64.4 °F 59.0 °F 83% 29.98 in 10.0 mi NNW 9.2 mph 16.1 mph N/A   Mostly Cloudy
8:35 AM 64.4 °F 59.0 °F 83% 29.98 in 10.0 mi North 4.6 mph - N/A   Mostly Cloudy
8:55 AM 66.2 °F 59.0 °F 78% 29.98 in 10.0 mi North 10.4 mph - N/A   Scattered Clouds
9:15 AM 69.8 °F 59.0 °F 68% 29.97 in 10.0 mi North 11.5 mph - N/A   Clear
9:35 AM 69.8 °F 60.8 °F 73% 29.96 in 10.0 mi North 11.5 mph - N/A   Clear
9:55 AM 69.8 °F 60.8 °F 73% 29.97 in 10.0 mi North 10.4 mph - N/A   Clear
10:15 AM 71.6 °F 60.8 °F 69% 29.96 in 10.0 mi North 9.2 mph - N/A   Clear
10:35 AM 73.4 °F 60.8 °F 65% 29.97 in 10.0 mi North 9.2 mph - N/A   Clear
10:55 AM 73.4 °F 60.8 °F 65% 29.97 in 10.0 mi North 8.1 mph - N/A   Clear
11:15 AM 75.2 °F 60.8 °F 61% 29.97 in 10.0 mi NNE 10.4 mph - N/A   Clear
11:35 AM 75.2 °F 60.8 °F 61% 29.97 in 10.0 mi NNE 8.1 mph - N/A   Clear
11:55 AM 77.0 °F 60.8 °F 57% 29.98 in 10.0 mi North 10.4 mph - N/A   Clear
12:15 PM 77.0 °F 62.6 °F 61% 29.98 in 10.0 mi NNE 9.2 mph - N/A   Scattered Clouds
12:35 PM 77.0 °F 60.8 °F 57% 29.98 in 10.0 mi NNE 6.9 mph - N/A   Clear
12:55 PM 77.0 °F 60.8 °F 57% 29.98 in 10.0 mi North 9.2 mph - N/A   Scattered Clouds
1:15 PM 77.0 °F 60.8 °F 57% 29.98 in 10.0 mi NNE 12.7 mph 17.3 mph N/A   Scattered Clouds
1:35 PM 77.0 °F 60.8 °F 57% 29.97 in 10.0 mi NNE 10.4 mph - N/A   Scattered Clouds
1:55 PM 78.8 °F 55.4 °F 44% 29.97 in 10.0 mi North 9.2 mph 17.3 mph N/A   Scattered Clouds
2:15 PM 78.8 °F 57.2 °F 47% 29.97 in 10.0 mi North 11.5 mph 17.3 mph N/A   Scattered Clouds
2:35 PM 78.8 °F 60.8 °F 54% 29.97 in 10.0 mi North 10.4 mph 16.1 mph N/A   Clear
2:55 PM 77.0 °F 60.8 °F 57% 29.96 in 10.0 mi North 6.9 mph 16.1 mph N/A   Clear
3:15 PM 77.0 °F 60.8 °F 57% 29.97 in 10.0 mi North 11.5 mph - N/A   Clear
3:35 PM 77.0 °F 60.8 °F 57% 29.97 in 10.0 mi North 12.7 mph - N/A   Clear
3:55 PM 77.0 °F 60.8 °F 57% 29.96 in 10.0 mi North 13.8 mph - N/A   Clear
4:15 PM 75.2 °F 60.8 °F 61% 29.97 in 10.0 mi North 11.5 mph 21.9 mph N/A   Clear
4:35 PM 71.6 °F 59.0 °F 64% 29.97 in 10.0 mi North 12.7 mph 17.3 mph N/A   Clear
4:55 PM 71.6 °F 60.8 °F 69% 29.99 in 10.0 mi North 9.2 mph 17.3 mph N/A Rain Light Rain
5:15 PM 73.4 °F 59.0 °F 61% 29.98 in 10.0 mi North 11.5 mph - N/A   Scattered Clouds
5:35 PM 73.4 °F 59.0 °F 61% 29.97 in 10.0 mi North 12.7 mph - N/A   Clear
5:55 PM 71.6 °F 57.2 °F 60% 29.97 in 10.0 mi North 11.5 mph 21.9 mph N/A   Clear
6:15 PM 71.6 °F 55.4 °F 57% 29.98 in 10.0 mi North 13.8 mph 19.6 mph N/A   Clear
6:35 PM 71.6 °F 55.4 °F 57% 29.98 in 10.0 mi North 13.8 mph 17.3 mph N/A   Clear
6:55 PM 69.8 °F 55.4 °F 60% 29.99 in 10.0 mi North 13.8 mph - N/A   Clear
7:15 PM 69.8 °F 55.4 °F 60% 29.99 in 10.0 mi North 11.5 mph 18.4 mph N/A   Clear
7:35 PM 68.0 °F 55.4 °F 64% 29.99 in 10.0 mi North 9.2 mph - N/A   Clear
7:55 PM 68.0 °F 53.6 °F 60% 30.00 in 10.0 mi North 13.8 mph - N/A   Clear
8:15 PM 64.4 °F 53.6 °F 68% 30.00 in 10.0 mi North 11.5 mph 16.1 mph N/A   Clear
8:35 PM 64.4 °F 53.6 °F 68% 30.00 in 10.0 mi North 12.7 mph 18.4 mph N/A   Clear
8:55 PM 62.6 °F 53.6 °F 72% 30.01 in 10.0 mi North 8.1 mph 16.1 mph N/A   Clear
9:15 PM 62.6 °F 53.6 °F 72% 30.02 in 10.0 mi North 10.4 mph - N/A   Clear
9:35 PM 62.6 °F 53.6 °F 72% 30.03 in 10.0 mi North 8.1 mph - N/A   Clear
9:55 PM 62.6 °F 53.6 °F 72% 30.04 in 10.0 mi North 8.1 mph - N/A   Clear
10:15 PM 60.8 °F 53.6 °F 77% 30.04 in 10.0 mi North 8.1 mph - N/A   Clear
10:35 PM 60.8 °F 53.6 °F 77% 30.04 in 10.0 mi North 8.1 mph - N/A   Clear
10:55 PM 60.8 °F 53.6 °F 77% 30.04 in 10.0 mi NNE 6.9 mph - N/A   Clear
11:15 PM 59.0 °F 53.6 °F 82% 30.04 in 10.0 mi North 5.8 mph - N/A   Clear
11:35 PM 59.0 °F 53.6 °F 82% 30.04 in 10.0 mi North 6.9 mph - N/A   Clear
11:55 PM 59.0 °F 53.6 °F 82% 30.04 in 10.0 mi North 6.9 mph - N/A   Clear